Ponca City, OK

12:30 PM CDT on September 30, 2016 (GMT -0500)
Ponca City Municipal

Weather History for KPNC - April, 2013

Change the Weather History Date:

Thursday, April 4, 2013

  Actual Average Record
Temperature  
Mean Temperature 46 °F -  
Max Temperature 57 °F 67 °F 87 °F (1954)
Min Temperature 35 °F 36 °F 26 °F (2015)
Degree Days  
Heating Degree Days 19    
Moisture  
Dew Point 36 °F    
Average Humidity 75    
Maximum Humidity 100    
Minimum Humidity 45    
Precipitation  
Precipitation 0.03 in - - ()
Sea Level Pressure  
Sea Level Pressure 30.19 in    
Wind  
Wind Speed 4 mph (NW)    
Max Wind Speed 12 mph    
Max Gust Speed -    
Visibility 8 miles    
Events Rain    
Averages and records for this station are not official NWS values.
T = Trace of Precipitation, MM = Missing Value Source: NWS Daily Summary

Daily Weather History Graph

Daily Weather History Graph

Search for Another Location

Airport or City:

Trip Planner

Search our weather history database for the weather conditions in past years. The results will help you decide how hot, cold, wet, or windy it might be!

Date:

Astronomy

Apr. 04, 2013 Rise Set
Actual Time 7:09 AM CDT 7:53 PM CDT
Civil Twilight 6:43 AM CDT 8:19 PM CDT
Nautical Twilight 6:12 AM CDT 8:50 PM CDT
Astronomical Twilight 5:40 AM CDT 9:22 PM CDT
Moon 3:28 AM CDT (4/4) 2:21 PM CDT (4/4)
Length of Visible Light 13h 36m
Length of Day
12h 44m
Waning Crescent, 33% of the Moon is Illuminated
Apr 4
Waning Crescent
Apr 10
New
Apr 18
First Quarter
Apr 25
Full
May 2
Last Quarter

Hourly Weather History & Observations

Time (CDT) Temp. Windchill Dew Point Humidity Pressure Visibility Wind Dir Wind Speed Gust Speed Precip Events Conditions
12:13 AM 37.4 °F 33.8 °F 35.6 °F 93% 30.24 in 7.0 mi NNW 4.6 mph - 0.00 in Rain Light Rain
12:53 AM 37.0 °F 34.5 °F 35.1 °F 93% 30.25 in 6.0 mi NNW 3.5 mph - 0.01 in Rain Light Rain
1:53 AM 37.9 °F 34.4 °F 36.0 °F 93% 30.25 in 7.0 mi NNW 4.6 mph - 0.01 in Rain Light Rain
2:53 AM 37.9 °F - 36.0 °F 93% 30.25 in 5.0 mi Calm Calm - 0.01 in Rain Light Rain
3:53 AM 37.9 °F - 36.0 °F 93% 30.22 in 5.0 mi Calm Calm - 0.00 in   Overcast
4:53 AM 39.0 °F - 37.0 °F 93% 30.22 in 5.0 mi Calm Calm - N/A   Overcast
5:53 AM 37.9 °F - 36.0 °F 93% 30.20 in 5.0 mi Calm Calm - N/A   Overcast
6:53 AM 37.9 °F - 36.0 °F 93% 30.20 in 4.0 mi Calm Calm - N/A   Partly Cloudy
7:12 AM 35.6 °F 31.7 °F 35.6 °F 100% 30.19 in 1.8 mi NW 4.6 mph - N/A   Clear
7:20 AM 35.6 °F 31.7 °F 33.8 °F 93% 30.20 in 2.5 mi NNW 4.6 mph - N/A   Clear
7:27 AM 35.6 °F 31.7 °F 33.8 °F 93% 30.20 in 4.0 mi NW 4.6 mph - N/A   Clear
7:53 AM 37.0 °F - 34.0 °F 89% 30.21 in 4.0 mi Calm Calm - N/A   Partly Cloudy
8:53 AM 39.9 °F 34.5 °F 37.0 °F 89% 30.21 in 6.0 mi North 8.1 mph - N/A   Clear
9:53 AM 46.0 °F 40.6 °F 37.0 °F 71% 30.19 in 10.0 mi North 11.5 mph - N/A   Clear
10:53 AM 48.0 °F - 35.1 °F 61% 30.20 in 10.0 mi North 10.4 mph - N/A   Clear
11:53 AM 52.0 °F - 33.1 °F 49% 30.20 in 10.0 mi North 10.4 mph - N/A   Clear
12:53 PM 54.0 °F - 33.1 °F 45% 30.19 in 10.0 mi North 8.1 mph - N/A   Clear
1:53 PM 54.0 °F - 34.0 °F 47% 30.18 in 10.0 mi North 8.1 mph - N/A   Mostly Cloudy
2:53 PM 55.0 °F - 34.0 °F 45% 30.16 in 10.0 mi Calm Calm - N/A   Scattered Clouds
3:53 PM 55.0 °F - 37.9 °F 53% 30.13 in 10.0 mi WNW 6.9 mph - N/A   Partly Cloudy
4:53 PM 55.9 °F - 37.9 °F 51% 30.12 in 10.0 mi Variable 3.5 mph - N/A   Partly Cloudy
5:53 PM 57.0 °F - 37.9 °F 49% 30.12 in 10.0 mi WNW 8.1 mph - N/A   Scattered Clouds
6:53 PM 55.0 °F - 37.9 °F 53% 30.12 in 10.0 mi WNW 6.9 mph - N/A   Partly Cloudy
7:53 PM 51.1 °F - 39.0 °F 63% 30.14 in 10.0 mi West 4.6 mph - N/A   Clear
8:53 PM 46.9 °F - 39.9 °F 77% 30.15 in 10.0 mi West 5.8 mph - N/A   Clear
9:53 PM 46.0 °F 43.1 °F 39.0 °F 76% 30.17 in 10.0 mi West 5.8 mph - N/A   Clear
10:53 PM 44.1 °F 41.5 °F 37.9 °F 79% 30.17 in 10.0 mi West 4.6 mph - N/A   Clear
11:53 PM 43.0 °F 41.3 °F 37.0 °F 80% 30.17 in 10.0 mi West 3.5 mph - N/A   Clear